Hourly Data Report for February 04, 2017

All times are specified in Local Standard Time (LST). Add 1 hour to adjust for Daylight Saving Time where and when it is observed.

TORONTO INTL A
ONTARIO

43°40'36.000" N
79°37'50.000" W
173.40 m
6158731
71624
YYZ

Download Data

Hourly Data (February 2017)
Hourly Data Report for February 4, 2017
TIME Temp Definition
°C
Dew Point Definition
°C
Rel Hum Definition
%
Wind Dir Definition
10's deg

Wind Spd Definition
km/h
Visibility Definition
km
Stn Press Definition
kPa
Hmdx Definition


Wind Chill Definition


Weather Definition


00:00 -6.8 -12.9 62 25 30 24.1 100.42   -15 LegendNANA
01:00 -7.0 -12.7 64 25 34 24.1 100.41   -16 Mainly Clear
02:00 -6.8 -12.5 64 25 27 24.1 100.45   -15 LegendNANA
03:00 -6.7 -14.3 55 28 26 24.1 100.46   -15 LegendNANA
04:00 -7.1 -12.6 65 27 18 19.3 100.47   -14 Snow Showers
05:00 -7.2 -13.9 59 27 23 24.1 100.48   -15 Snow Showers
06:00 -7.6 -13.3 64 23 17 24.1 100.48   -14 LegendNANA
07:00 -7.7 -13.4 64 24 17 24.1 100.51   -14 Mostly Cloudy
08:00 -8.8 -13.7 68 21 23 24.1 100.51   -17 LegendNANA
09:00 -8.4 -13.3 68 21 18 24.1 100.53   -15 Snow
10:00 -6.9 -13.4 60 23 21 24.1 100.53   -14 Mostly Cloudy
11:00 -6.3 -12.9 60 25 26 24.1 100.52   -14 LegendNANA
12:00 -5.8 -12.8 58 26 26 24.1 100.46   -14 LegendNANA
13:00 -4.5 -12.7 53 26 27 24.1 100.36   -12 Mostly Cloudy
14:00 -4.5 -12.5 54 26 34 24.1 100.30   -13 LegendNANA
15:00 -3.6 -12.4 51 26 24 24.1 100.21   -10 LegendNANA
16:00 -2.8 -12.1 49 24 25 24.1 100.16   -10 Mostly Cloudy
17:00 -3.9 -12.9 50 24 34 24.1 100.11   -12 LegendNANA
18:00 -4.5 -12.2 55 24 28 24.1 100.07   -12 LegendNANA
19:00 -5.1 -11.9 59 25 25 24.1 100.00   -12 Mostly Cloudy
20:00 -5.0 -10.8 64 24 22 24.1 99.93   -12 LegendNANA
21:00 -4.8 -10.2 66 24 19 24.1 99.86   -11 LegendNANA
22:00 -4.5 -10.1 65 24 16 24.1 99.80   -10 Mostly Cloudy
23:00 -4.1 -10.1 63 23 14 24.1 99.71   -9 LegendNANA

Notes on Data Quality.

Legend

  • E = Estimated
  • M = Missing
  • NA = Not Available
Date modified: